,,PA_Meas_PMT16A,,PR_Meas_QMR101_102,,RH_Meas_QMH101,,SR_Meas_QMS101,,TA_Meas_QMH101,,GenWind,,GenWind,
time,status,PA,status,PR,status,RH,status,SR,status,TA,status,DirAvg,status,SpdAvg,
2013-01-27, 00:00:04,VALID,919.788,VALID,0,VALID,96.9546,VALID,0,VALID,19.6443,VALID,137,VALID,0.787891,
2013-01-27, 00:01:04,VALID,919.743,VALID,0,VALID,96.9698,VALID,0,VALID,19.6443,VALID,137,VALID,0.901953,
2013-01-27, 00:02:04,VALID,919.739,VALID,0,VALID,96.947,VALID,0,VALID,19.6263,VALID,136,VALID,1.02617,
2013-01-27, 00:03:04,VALID,919.73,VALID,0,VALID,96.9622,VALID,0,VALID,19.6068,VALID,127,VALID,1.45898,
2013-01-27, 00:04:04,VALID,919.698,VALID,0,VALID,96.9546,VALID,0,VALID,19.5663,VALID,122,VALID,1.35977,
2013-01-27, 00:05:04,VALID,919.68,VALID,0,VALID,96.9622,VALID,0,VALID,19.5858,VALID,128,VALID,0.996484,
2013-01-27, 00:06:04,VALID,919.665,VALID,0,VALID,96.947,VALID,0.107441,VALID,19.5858,VALID,127,VALID,0.669531,
2013-01-27, 00:07:04,VALID,919.63,VALID,0,VALID,96.9394,VALID,0,VALID,19.5873,VALID,95,VALID,0.846875,
2013-01-27, 00:08:04,VALID,919.61,VALID,0,VALID,96.9546,VALID,0,VALID,19.5873,VALID,102,VALID,0.766016,
2013-01-27, 00:09:04,VALID,919.582,VALID,0,VALID,96.9546,VALID,0,VALID,19.5678,VALID,120,VALID,1.26094,
2013-01-27, 00:10:04,VALID,919.583,VALID,0,VALID,96.9622,VALID,0,VALID,19.5678,VALID,118,VALID,1.0332,
2013-01-27, 00:11:04,VALID,919.529,VALID,0,VALID,96.9546,VALID,0.107441,VALID,19.5678,VALID,98,VALID,1.13164,
2013-01-27, 00:12:04,VALID,919.511,VALID,0,VALID,96.9546,VALID,0.107441,VALID,19.5483,VALID,104,VALID,1.60938,
2013-01-27, 00:13:04,VALID,919.523,VALID,0,VALID,96.9546,VALID,0,VALID,19.5273,VALID,116,VALID,0.864453,
2013-01-27, 00:14:04,VALID,919.507,VALID,0,VALID,96.9698,VALID,0.107441,VALID,19.5273,VALID,109,VALID,0.823438,
2013-01-27, 00:15:04,VALID,919.491,VALID,0,VALID,96.9622,VALID,0,VALID,19.5078,VALID,107,VALID,0.767187,
2013-01-27, 00:16:04,VALID,919.466,VALID,0,VALID,96.947,VALID,0,VALID,19.5093,VALID,119,VALID,0.767578,
2013-01-27, 00:17:04,VALID,919.485,VALID,0,VALID,96.9622,VALID,0,VALID,19.5288,VALID,108,VALID,0.530469,
2013-01-27, 00:18:04,VALID,919.461,VALID,0,VALID,96.9394,VALID,0,VALID,19.5078,VALID,117,VALID,1.15195,
2013-01-27, 00:19:04,VALID,919.425,VALID,0,VALID,96.9241,VALID,0,VALID,19.5288,VALID,117,VALID,1.03164,
2013-01-27, 00:20:04,VALID,919.424,VALID,0,VALID,96.9317,VALID,0,VALID,19.5093,VALID,124,VALID,0.5625,
2013-01-27, 00:21:04,VALID,919.412,VALID,0,VALID,96.9546,VALID,0,VALID,19.4898,VALID,140,VALID,0.844922,
2013-01-27, 00:22:04,VALID,919.398,VALID,0,VALID,96.9546,VALID,0,VALID,19.4688,VALID,131,VALID,0.533594,
2013-01-27, 00:23:04,VALID,919.408,VALID,0,VALID,96.947,VALID,0,VALID,19.5288,VALID,142,VALID,0.873438,
2013-01-27, 00:24:04,VALID,919.405,VALID,0,VALID,96.9927,VALID,0,VALID,19.5093,VALID,145,VALID,0.558984,
2013-01-27, 00:25:04,VALID,919.384,VALID,0,VALID,96.9775,VALID,0,VALID,19.4688,VALID,138,VALID,0.486328,
2013-01-27, 00:26:04,VALID,919.369,VALID,0,VALID,96.9698,VALID,0,VALID,19.4688,VALID,144,VALID,1.20117,
2013-01-27, 00:27:04,VALID,919.389,VALID,0,VALID,96.9698,VALID,0,VALID,19.4688,VALID,146,VALID,0.6875,
2013-01-27, 00:28:04,VALID,919.363,VALID,0,VALID,96.9775,VALID,0,VALID,19.4898,VALID,135,VALID,0.944141,
2013-01-27, 00:29:04,VALID,919.375,VALID,0,VALID,96.9851,VALID,0,VALID,19.4898,VALID,147,VALID,0.71875,
2013-01-27, 00:30:04,VALID,919.386,VALID,0,VALID,96.9927,VALID,0,VALID,19.4898,VALID,145,VALID,0.262891,
2013-01-27, 00:31:04,VALID,919.376,VALID,0,VALID,96.9851,VALID,0,VALID,19.4688,VALID,158,VALID,0.426562,
2013-01-27, 00:32:04,VALID,919.413,VALID,0,VALID,96.9775,VALID,0,VALID,19.4898,VALID,154,VALID,0.932031,
2013-01-27, 00:33:04,VALID,919.406,VALID,0,VALID,97.008,VALID,0,VALID,19.4898,VALID,155,VALID,1.00391,
2013-01-27, 00:34:04,VALID,919.407,VALID,0,VALID,97.0003,VALID,0,VALID,19.4898,VALID,133,VALID,1.17344,
2013-01-27, 00:35:04,VALID,919.422,VALID,0,VALID,97.0003,VALID,0,VALID,19.4688,VALID,138,VALID,1.0457,
2013-01-27, 00:36:04,VALID,919.406,VALID,0,VALID,96.9851,VALID,0,VALID,19.4703,VALID,156,VALID,0.635156,
2013-01-27, 00:37:04,VALID,919.4,VALID,0,VALID,97.008,VALID,0,VALID,19.4688,VALID,137,VALID,0.550391,
2013-01-27, 00:38:04,VALID,919.421,VALID,0,VALID,97.0308,VALID,0,VALID,19.4898,VALID,139,VALID,0.732031,
2013-01-27, 00:39:04,VALID,919.38,VALID,0,VALID,97.0232,VALID,0,VALID,19.4493,VALID,137,VALID,1.03047,
2013-01-27, 00:40:04,VALID,919.41,VALID,0,VALID,97.008,VALID,0,VALID,19.4493,VALID,134,VALID,0.896875,
2013-01-27, 00:41:04,VALID,919.418,VALID,0,VALID,96.9927,VALID,0.107441,VALID,19.4703,VALID,131,VALID,1.17305,
2013-01-27, 00:42:04,VALID,919.394,VALID,0,VALID,96.9622,VALID,0,VALID,19.4508,VALID,131,VALID,1.03125,
2013-01-27, 00:43:04,VALID,919.43,VALID,0,VALID,96.9622,VALID,0,VALID,19.4703,VALID,129,VALID,1.26836,
2013-01-27, 00:44:04,VALID,919.421,VALID,0,VALID,96.9775,VALID,0,VALID,19.4898,VALID,131,VALID,1.27695,
2013-01-27, 00:45:04,VALID,919.405,VALID,0,VALID,96.9241,VALID,0,VALID,19.4688,VALID,124,VALID,1.06992,
2013-01-27, 00:46:04,VALID,919.405,VALID,0,VALID,96.9089,VALID,0,VALID,19.4493,VALID,115,VALID,0.677734,
2013-01-27, 00:47:04,VALID,919.406,VALID,0,VALID,96.9089,VALID,0,VALID,19.4898,VALID,137,VALID,1.15234,
2013-01-27, 00:48:04,VALID,919.417,VALID,0,VALID,96.9089,VALID,0.107441,VALID,19.4898,VALID,130,VALID,0.941406,
2013-01-27, 00:49:04,VALID,919.391,VALID,0,VALID,96.8936,VALID,0.107441,VALID,19.4688,VALID,151,VALID,1.05898,
2013-01-27, 00:50:04,VALID,919.393,VALID,0,VALID,96.8784,VALID,0,VALID,19.4883,VALID,134,VALID,0.953125,
2013-01-27, 00:51:04,VALID,919.359,VALID,0,VALID,96.8555,VALID,0.107441,VALID,19.4898,VALID,130,VALID,1.06523,
2013-01-27, 00:52:04,VALID,919.34,VALID,0,VALID,96.8326,VALID,0,VALID,19.4898,VALID,127,VALID,1.61133,
2013-01-27, 00:53:04,VALID,919.348,VALID,0,VALID,96.8098,VALID,0,VALID,19.4883,VALID,148,VALID,1.1793,
2013-01-27, 00:54:04,VALID,919.302,VALID,0,VALID,96.7793,VALID,0,VALID,19.5288,VALID,137,VALID,1.23242,
2013-01-27, 00:55:04,VALID,919.35,VALID,0,VALID,96.7488,VALID,0,VALID,19.5093,VALID,134,VALID,1.12852,
2013-01-27, 00:56:04,VALID,919.366,VALID,0,VALID,96.7335,VALID,0,VALID,19.5288,VALID,131,VALID,1.12422,
2013-01-27, 00:57:04,VALID,919.346,VALID,0,VALID,96.7183,VALID,0,VALID,19.5288,VALID,123,VALID,1.12109,
2013-01-27, 00:58:04,VALID,919.36,VALID,0,VALID,96.6954,VALID,0,VALID,19.5093,VALID,131,VALID,0.653516,
2013-01-27, 00:59:04,VALID,919.358,VALID,0,VALID,96.6802,VALID,0.107441,VALID,19.4883,VALID,140,VALID,0.719531,
2013-01-27, 01:00:04,VALID,919.359,VALID,0,VALID,96.703,VALID,0,VALID,19.5093,VALID,133,VALID,0.407031,
2013-01-27, 01:01:04,VALID,919.373,VALID,0,VALID,96.7183,VALID,0,VALID,19.4898,VALID,144,VALID,0.395703,
2013-01-27, 01:02:04,VALID,919.389,VALID,0,VALID,96.703,VALID,0,VALID,19.4898,VALID,147,VALID,0.476563,
2013-01-27, 01:03:04,VALID,919.328,VALID,0,VALID,96.7107,VALID,0,VALID,19.5093,VALID,115,VALID,1.05195,
2013-01-27, 01:04:04,VALID,919.335,VALID,0,VALID,96.7107,VALID,0,VALID,19.4898,VALID,115,VALID,0.361719,
2013-01-27, 01:05:04,VALID,919.337,VALID,0,VALID,96.7183,VALID,0,VALID,19.4898,VALID,136,VALID,0.251172,
2013-01-27, 01:06:04,VALID,919.334,VALID,0,VALID,96.7259,VALID,0,VALID,19.4898,VALID,136,VALID,0.462109,
2013-01-27, 01:07:04,VALID,919.333,VALID,0,VALID,96.7107,VALID,0,VALID,19.4688,VALID,136,VALID,0.294531,
2013-01-27, 01:08:04,VALID,919.344,VALID,0,VALID,96.7183,VALID,0,VALID,19.4898,VALID,136,VALID,0.228125,
2013-01-27, 01:09:04,VALID,919.311,VALID,0,VALID,96.7335,VALID,0,VALID,19.4688,VALID,135,VALID,0,
2013-01-27, 01:10:04,VALID,919.332,VALID,0,VALID,96.7183,VALID,0,VALID,19.5093,VALID,135,VALID,0,
2013-01-27, 01:11:04,VALID,919.359,VALID,0,VALID,96.7488,VALID,0,VALID,19.4898,VALID,135,VALID,0,
2013-01-27, 01:12:04,VALID,919.308,VALID,0,VALID,96.7488,VALID,0,VALID,19.4703,VALID,136,VALID,0,
2013-01-27, 01:13:05,VALID,919.323,VALID,0,VALID,96.7411,VALID,0,VALID,19.4898,VALID,135,VALID,0.234375,
2013-01-27, 01:14:05,VALID,919.32,VALID,0,VALID,96.7488,VALID,0,VALID,19.4688,VALID,135,VALID,0.0210938,
2013-01-27, 01:15:05,VALID,919.314,VALID,0,VALID,96.764,VALID,0,VALID,19.4703,VALID,136,VALID,0.00351562,
2013-01-27, 01:16:05,VALID,919.31,VALID,0.2,VALID,96.7716,VALID,0,VALID,19.4703,VALID,136,VALID,0.0109375,
2013-01-27, 01:17:05,VALID,919.319,VALID,0,VALID,96.7869,VALID,0,VALID,19.4898,VALID,135,VALID,0.0289063,
2013-01-27, 01:18:05,VALID,919.296,VALID,0,VALID,96.764,VALID,0,VALID,19.4703,VALID,136,VALID,0.040625,
2013-01-27, 01:19:05,VALID,919.291,VALID,0,VALID,96.7793,VALID,0,VALID,19.4508,VALID,116,VALID,0.549219,
2013-01-27, 01:20:05,VALID,919.268,VALID,0,VALID,96.7488,VALID,0,VALID,19.4313,VALID,133,VALID,0.723047,
2013-01-27, 01:21:05,VALID,919.244,VALID,0,VALID,96.7335,VALID,0,VALID,19.4313,VALID,136,VALID,0.701953,
2013-01-27, 01:22:05,VALID,919.218,VALID,0,VALID,96.7259,VALID,0,VALID,19.4313,VALID,125,VALID,0.858984,
2013-01-27, 01:23:05,VALID,919.239,VALID,0,VALID,96.7107,VALID,0,VALID,19.4313,VALID,124,VALID,1.25156,
2013-01-27, 01:24:05,VALID,919.209,VALID,0,VALID,96.6878,VALID,0,VALID,19.4508,VALID,130,VALID,0.852344,
2013-01-27, 01:25:05,VALID,919.199,VALID,0,VALID,96.6954,VALID,0,VALID,19.4508,VALID,120,VALID,0.935938,
2013-01-27, 01:26:05,VALID,919.224,VALID,0,VALID,96.6725,VALID,0,VALID,19.4313,VALID,110,VALID,0.982422,
2013-01-27, 01:27:05,VALID,919.233,VALID,0,VALID,96.6344,VALID,0,VALID,19.4508,VALID,115,VALID,0.705859,
2013-01-27, 01:28:05,VALID,919.261,VALID,0,VALID,96.6649,VALID,0,VALID,19.4508,VALID,124,VALID,0.769922,
2013-01-27, 01:29:05,VALID,919.235,VALID,0,VALID,96.6649,VALID,0,VALID,19.4508,VALID,127,VALID,0.607031,
2013-01-27, 01:30:05,VALID,919.25,VALID,0,VALID,96.6573,VALID,0,VALID,19.4508,VALID,127,VALID,0.998828,
2013-01-27, 01:31:05,VALID,919.266,VALID,0,VALID,96.6573,VALID,0,VALID,19.4508,VALID,127,VALID,0.772266,
2013-01-27, 01:32:05,VALID,919.31,VALID,0,VALID,96.642,VALID,0,VALID,19.4298,VALID,127,VALID,0.680469,
2013-01-27, 01:33:05,VALID,919.305,VALID,0,VALID,96.6497,VALID,0,VALID,19.4703,VALID,127,VALID,0.346875,
2013-01-27, 01:34:05,VALID,919.348,VALID,0,VALID,96.6497,VALID,0,VALID,19.4703,VALID,127,VALID,0.0351563,
2013-01-27, 01:35:05,VALID,919.348,VALID,0,VALID,96.6344,VALID,0,VALID,19.4898,VALID,127,VALID,0.329297,
2013-01-27, 01:36:05,VALID,919.324,VALID,0,VALID,96.6802,VALID,0,VALID,19.4703,VALID,127,VALID,0.348047,
2013-01-27, 01:37:05,VALID,919.338,VALID,0,VALID,96.6725,VALID,0,VALID,19.4703,VALID,127,VALID,0.392578,
2013-01-27, 01:38:05,VALID,919.345,VALID,0,VALID,96.6878,VALID,0,VALID,19.4898,VALID,128,VALID,0.307813,
2013-01-27, 01:39:05,VALID,919.341,VALID,0,VALID,96.6954,VALID,0,VALID,19.4898,VALID,129,VALID,0.0761719,
2013-01-27, 01:40:05,VALID,919.34,VALID,0,VALID,96.6878,VALID,0,VALID,19.5093,VALID,129,VALID,0.0015625,
2013-01-27, 01:41:05,VALID,919.337,VALID,0,VALID,96.7183,VALID,0,VALID,19.5093,VALID,129,VALID,0.0683594,
2013-01-27, 01:42:05,VALID,919.305,VALID,0,VALID,96.6878,VALID,0,VALID,19.5093,VALID,129,VALID,0,
2013-01-27, 01:43:05,VALID,919.302,VALID,0,VALID,96.703,VALID,0,VALID,19.5288,VALID,129,VALID,0,
2013-01-27, 01:44:05,VALID,919.294,VALID,0,VALID,96.7183,VALID,0,VALID,19.5288,VALID,129,VALID,0,
2013-01-27, 01:45:05,VALID,919.275,VALID,0,VALID,96.7259,VALID,0,VALID,19.5288,VALID,129,VALID,0,
2013-01-27, 01:46:05,VALID,919.295,VALID,0,VALID,96.7564,VALID,0,VALID,19.5288,VALID,129,VALID,0,
2013-01-27, 01:47:05,VALID,919.295,VALID,0,VALID,96.764,VALID,0,VALID,19.5093,VALID,129,VALID,0,
2013-01-27, 01:48:05,VALID,919.302,VALID,0,VALID,96.7411,VALID,0,VALID,19.5288,VALID,129,VALID,0.331641,
2013-01-27, 01:49:05,VALID,919.284,VALID,0,VALID,96.7793,VALID,0,VALID,19.5093,VALID,129,VALID,0.312891,
2013-01-27, 01:50:05,VALID,919.256,VALID,0,VALID,96.8021,VALID,0,VALID,19.5093,VALID,129,VALID,0.371094,
2013-01-27, 01:51:05,VALID,919.278,VALID,0,VALID,96.825,VALID,0,VALID,19.5093,VALID,129,VALID,0.0695312,
2013-01-27, 01:52:05,VALID,919.277,VALID,0,VALID,96.825,VALID,0,VALID,19.4898,VALID,129,VALID,0,
2013-01-27, 01:53:05,VALID,919.25,VALID,0,VALID,96.8326,VALID,0,VALID,19.4898,VALID,129,VALID,0,
2013-01-27, 01:54:05,VALID,919.276,VALID,0,VALID,96.8403,VALID,0,VALID,19.4703,VALID,129,VALID,0,
2013-01-27, 01:55:05,VALID,919.257,VALID,0,VALID,96.8631,VALID,0,VALID,19.5093,VALID,129,VALID,0.273438,
2013-01-27, 01:56:05,VALID,919.257,VALID,0,VALID,96.8784,VALID,0,VALID,19.5288,VALID,129,VALID,0.0886719,
2013-01-27, 01:57:05,VALID,919.231,VALID,0,VALID,96.8936,VALID,0,VALID,19.5498,VALID,129,VALID,0,
2013-01-27, 01:58:05,VALID,919.225,VALID,0,VALID,96.8784,VALID,0,VALID,19.5288,VALID,129,VALID,0,
2013-01-27, 01:59:05,VALID,919.217,VALID,0,VALID,96.886,VALID,0,VALID,19.4703,VALID,129,VALID,0.201172,
2013-01-27, 02:00:05,VALID,919.194,VALID,0,VALID,96.8631,VALID,0,VALID,19.4508,VALID,129,VALID,0.347656,
2013-01-27, 02:01:05,VALID,919.152,VALID,0,VALID,96.8479,VALID,0,VALID,19.3923,VALID,129,VALID,0.527344,
2013-01-27, 02:02:05,VALID,919.136,VALID,0,VALID,96.8555,VALID,0,VALID,19.3533,VALID,129,VALID,0.496875,
2013-01-27, 02:03:05,VALID,919.12,VALID,0,VALID,96.8631,VALID,0,VALID,19.3533,VALID,129,VALID,0.531641,
2013-01-27, 02:04:05,VALID,919.112,VALID,0,VALID,96.9012,VALID,0,VALID,19.3338,VALID,129,VALID,0.434375,
2013-01-27, 02:05:05,VALID,919.093,VALID,0,VALID,96.8707,VALID,0,VALID,19.3338,VALID,129,VALID,0.584375,
2013-01-27, 02:06:05,VALID,919.096,VALID,0,VALID,96.9012,VALID,0,VALID,19.3338,VALID,129,VALID,0.496484,
2013-01-27, 02:07:05,VALID,919.054,VALID,0,VALID,96.8936,VALID,0,VALID,19.3143,VALID,129,VALID,0.454297,
2013-01-27, 02:08:05,VALID,919.063,VALID,0,VALID,96.8936,VALID,0,VALID,19.3143,VALID,129,VALID,0.714063,
2013-01-27, 02:09:05,VALID,919.053,VALID,0,VALID,96.9317,VALID,0,VALID,19.2933,VALID,129,VALID,0.761719,
2013-01-27, 02:10:05,VALID,919.056,VALID,0,VALID,96.947,VALID,0,VALID,19.2933,VALID,129,VALID,0.713281,
2013-01-27, 02:11:05,VALID,919.026,VALID,0,VALID,96.9394,VALID,0,VALID,19.3143,VALID,129,VALID,0.866016,
2013-01-27, 02:12:05,VALID,918.985,VALID,0,VALID,96.9622,VALID,0,VALID,19.2948,VALID,127,VALID,0.803125,
2013-01-27, 02:13:05,VALID,918.988,VALID,0,VALID,96.9546,VALID,0.107441,VALID,19.2933,VALID,119,VALID,0.868359,
2013-01-27, 02:14:05,VALID,918.954,VALID,0,VALID,96.9698,VALID,0.107441,VALID,19.2738,VALID,119,VALID,0.604688,
2013-01-27, 02:15:05,VALID,918.965,VALID,0,VALID,96.9546,VALID,0,VALID,19.2738,VALID,119,VALID,0.615234,
2013-01-27, 02:16:05,VALID,918.932,VALID,0,VALID,96.9775,VALID,0,VALID,19.2543,VALID,119,VALID,0.595703,
2013-01-27, 02:17:05,VALID,918.942,VALID,0,VALID,96.9698,VALID,0,VALID,19.2948,VALID,119,VALID,0.231641,
2013-01-27, 02:18:05,VALID,918.946,VALID,0,VALID,96.9775,VALID,0,VALID,19.2948,VALID,119,VALID,0.0570313,
2013-01-27, 02:19:05,VALID,918.945,VALID,0,VALID,96.9775,VALID,0.107441,VALID,19.2933,VALID,119,VALID,0,
2013-01-27, 02:20:05,VALID,918.922,VALID,0,VALID,96.9622,VALID,0,VALID,19.3143,VALID,119,VALID,0,
2013-01-27, 02:21:05,VALID,918.96,VALID,0,VALID,96.9927,VALID,0.107441,VALID,19.2933,VALID,119,VALID,0.191797,
2013-01-27, 02:22:05,VALID,918.936,VALID,0,VALID,97.0003,VALID,0,VALID,19.3143,VALID,119,VALID,0,
2013-01-27, 02:23:05,VALID,918.93,VALID,0,VALID,97.0003,VALID,0,VALID,19.2948,VALID,119,VALID,0.0734375,
2013-01-27, 02:24:05,VALID,918.93,VALID,0,VALID,97.0156,VALID,0,VALID,19.2933,VALID,119,VALID,0,
2013-01-27, 02:25:05,VALID,918.902,VALID,0,VALID,97.008,VALID,0,VALID,19.2948,VALID,119,VALID,0,
2013-01-27, 02:26:05,VALID,918.856,VALID,0,VALID,97.0232,VALID,0,VALID,19.2948,VALID,119,VALID,0,
2013-01-27, 02:27:05,VALID,918.876,VALID,0,VALID,97.0385,VALID,0.107441,VALID,19.2948,VALID,119,VALID,0.130859,
2013-01-27, 02:28:05,VALID,918.829,VALID,0,VALID,97.0232,VALID,0.107441,VALID,19.2753,VALID,119,VALID,0.181641,
2013-01-27, 02:29:05,VALID,918.827,VALID,0,VALID,97.0156,VALID,0.107441,VALID,19.2543,VALID,119,VALID,0.588281,
2013-01-27, 02:30:05,VALID,918.807,VALID,0,VALID,97.0461,VALID,0,VALID,19.2753,VALID,119,VALID,0.226953,
2013-01-27, 02:31:05,VALID,918.777,VALID,0,VALID,97.0308,VALID,0,VALID,19.2753,VALID,119,VALID,0.279687,
2013-01-27, 02:32:05,VALID,918.811,VALID,0,VALID,97.0842,VALID,0,VALID,19.2948,VALID,119,VALID,0.40625,
2013-01-27, 02:33:05,VALID,918.788,VALID,0,VALID,97.069,VALID,0,VALID,19.2948,VALID,119,VALID,0.699219,
2013-01-27, 02:34:05,VALID,918.772,VALID,0,VALID,97.0613,VALID,0,VALID,19.2753,VALID,119,VALID,0.196484,
2013-01-27, 02:35:05,VALID,918.769,VALID,0,VALID,97.0918,VALID,0.107441,VALID,19.2948,VALID,119,VALID,0.591016,
2013-01-27, 02:36:05,VALID,918.762,VALID,0,VALID,97.1147,VALID,0,VALID,19.2948,VALID,119,VALID,0.392188,
2013-01-27, 02:37:05,VALID,918.744,VALID,0,VALID,97.0918,VALID,0,VALID,19.2753,VALID,119,VALID,0.394922,
2013-01-27, 02:38:05,VALID,918.743,VALID,0,VALID,97.0994,VALID,0,VALID,19.2753,VALID,119,VALID,0.345313,
2013-01-27, 02:39:05,VALID,918.721,VALID,0,VALID,97.1147,VALID,0.107441,VALID,19.2543,VALID,119,VALID,0.497656,
2013-01-27, 02:40:05,VALID,918.726,VALID,0,VALID,97.1147,VALID,0,VALID,19.2948,VALID,119,VALID,0.410937,
2013-01-27, 02:41:05,VALID,918.703,VALID,0,VALID,97.1376,VALID,0,VALID,19.2543,VALID,119,VALID,0.477734,
2013-01-27, 02:42:05,VALID,918.674,VALID,0,VALID,97.1147,VALID,0,VALID,19.2543,VALID,119,VALID,0.528125,
2013-01-27, 02:43:05,VALID,918.693,VALID,0,VALID,97.1376,VALID,0,VALID,19.2753,VALID,119,VALID,0.694922,
2013-01-27, 02:44:05,VALID,918.674,VALID,0,VALID,97.1452,VALID,0,VALID,19.2948,VALID,119,VALID,0.671484,
2013-01-27, 02:45:05,VALID,918.669,VALID,0,VALID,97.1528,VALID,0,VALID,19.2753,VALID,119,VALID,0.740625,
2013-01-27, 02:46:05,VALID,918.638,VALID,0,VALID,97.1528,VALID,0,VALID,19.2948,VALID,119,VALID,0.763281,
2013-01-27, 02:47:05,VALID,918.635,VALID,0,VALID,97.1681,VALID,0.107441,VALID,19.2738,VALID,121,VALID,0.780469,
2013-01-27, 02:48:05,VALID,918.633,VALID,0,VALID,97.1833,VALID,0,VALID,19.3143,VALID,125,VALID,0.683984,
2013-01-27, 02:49:05,VALID,918.603,VALID,0,VALID,97.1909,VALID,0,VALID,19.3143,VALID,125,VALID,0.688672,
2013-01-27, 02:50:05,VALID,918.577,VALID,0,VALID,97.1909,VALID,0,VALID,19.3338,VALID,125,VALID,0.762891,
2013-01-27, 02:51:05,VALID,918.543,VALID,0,VALID,97.1986,VALID,0,VALID,19.3338,VALID,125,VALID,0.670703,
2013-01-27, 02:52:05,VALID,918.55,VALID,0,VALID,97.1909,VALID,0.107441,VALID,19.3533,VALID,125,VALID,0.555469,
2013-01-27, 02:53:05,VALID,918.537,VALID,0,VALID,97.1909,VALID,0,VALID,19.3323,VALID,125,VALID,0.412109,
2013-01-27, 02:54:05,VALID,918.531,VALID,0,VALID,97.2062,VALID,0.107441,VALID,19.3533,VALID,125,VALID,0.573047,
2013-01-27, 02:55:05,VALID,918.537,VALID,0,VALID,97.1909,VALID,0,VALID,19.3338,VALID,125,VALID,0.492188,
2013-01-27, 02:56:05,VALID,918.531,VALID,0,VALID,97.2214,VALID,0,VALID,19.2933,VALID,125,VALID,0.0296875,
2013-01-27, 02:57:05,VALID,918.518,VALID,0,VALID,97.1909,VALID,0,VALID,19.2933,VALID,125,VALID,0,
2013-01-27, 02:58:05,VALID,918.518,VALID,0,VALID,97.2214,VALID,0,VALID,19.3338,VALID,125,VALID,0.974219,
2013-01-27, 02:59:05,VALID,918.508,VALID,0,VALID,97.229,VALID,0,VALID,19.2933,VALID,125,VALID,0.598437,
2013-01-27, 03:00:05,VALID,918.483,VALID,0,VALID,97.2443,VALID,0,VALID,19.2948,VALID,125,VALID,0.661328,
2013-01-27, 03:01:05,VALID,918.51,VALID,0,VALID,97.229,VALID,0.107441,VALID,19.2753,VALID,125,VALID,0.610937,
2013-01-27, 03:02:05,VALID,918.522,VALID,0,VALID,97.2062,VALID,0,VALID,19.2753,VALID,125,VALID,0.296484,
2013-01-27, 03:03:05,VALID,918.523,VALID,0,VALID,97.2443,VALID,0,VALID,19.2753,VALID,125,VALID,0.960547,
2013-01-27, 03:04:05,VALID,918.516,VALID,0,VALID,97.2443,VALID,0.107441,VALID,19.2348,VALID,125,VALID,0.407813,
2013-01-27, 03:05:05,VALID,918.501,VALID,0,VALID,97.2443,VALID,0,VALID,19.2558,VALID,125,VALID,0.335547,
2013-01-27, 03:06:05,VALID,918.492,VALID,0,VALID,97.2672,VALID,0,VALID,19.2153,VALID,125,VALID,0.320313,
2013-01-27, 03:07:05,VALID,918.512,VALID,0,VALID,97.2595,VALID,0,VALID,19.2348,VALID,125,VALID,0.397656,
2013-01-27, 03:08:05,VALID,918.509,VALID,0,VALID,97.2443,VALID,0,VALID,19.2558,VALID,142,VALID,0.70625,
2013-01-27, 03:09:05,VALID,918.514,VALID,0,VALID,97.2672,VALID,0,VALID,19.2363,VALID,139,VALID,0.486328,
2013-01-27, 03:10:05,VALID,918.478,VALID,0,VALID,97.2824,VALID,0,VALID,19.2153,VALID,146,VALID,0.392969,
2013-01-27, 03:11:05,VALID,918.458,VALID,0,VALID,97.2595,VALID,0,VALID,19.2363,VALID,139,VALID,0.475,
2013-01-27, 03:12:05,VALID,918.421,VALID,0,VALID,97.2672,VALID,0,VALID,19.2753,VALID,139,VALID,0.614062,
2013-01-27, 03:13:05,VALID,918.414,VALID,0,VALID,97.2748,VALID,0,VALID,19.2753,VALID,156,VALID,0.888672,
2013-01-27, 03:14:05,VALID,918.383,VALID,0,VALID,97.29,VALID,0,VALID,19.2753,VALID,153,VALID,0.690234,
2013-01-27, 03:15:05,VALID,918.39,VALID,0,VALID,97.2824,VALID,0,VALID,19.2948,VALID,131,VALID,0.790625,
2013-01-27, 03:16:05,VALID,918.414,VALID,0,VALID,97.3053,VALID,0,VALID,19.2543,VALID,162,VALID,0.598828,
2013-01-27, 03:17:05,VALID,918.379,VALID,0,VALID,97.29,VALID,0,VALID,19.2948,VALID,130,VALID,0.888672,
2013-01-27, 03:18:05,VALID,918.367,VALID,0,VALID,97.2824,VALID,0,VALID,19.2753,VALID,126,VALID,1.3207,
2013-01-27, 03:19:05,VALID,918.404,VALID,0,VALID,97.29,VALID,0,VALID,19.2753,VALID,151,VALID,0.9875,
2013-01-27, 03:20:05,VALID,918.381,VALID,0,VALID,97.2824,VALID,0,VALID,19.2348,VALID,133,VALID,1.09687,
2013-01-27, 03:21:05,VALID,918.365,VALID,0,VALID,97.2824,VALID,0,VALID,19.2168,VALID,128,VALID,0.999609,
2013-01-27, 03:22:05,VALID,918.369,VALID,0,VALID,97.2977,VALID,0,VALID,19.2168,VALID,121,VALID,0.832812,
2013-01-27, 03:23:05,VALID,918.344,VALID,0,VALID,97.3129,VALID,0,VALID,19.1973,VALID,135,VALID,0.635156,
2013-01-27, 03:24:05,VALID,918.351,VALID,0,VALID,97.3129,VALID,0,VALID,19.1583,VALID,147,VALID,0.821875,
2013-01-27, 03:25:05,VALID,918.333,VALID,0,VALID,97.3205,VALID,0,VALID,19.1597,VALID,133,VALID,1.28125,
2013-01-27, 03:26:05,VALID,918.281,VALID,0,VALID,97.3205,VALID,0,VALID,19.1792,VALID,147,VALID,0.454688,
2013-01-27, 03:27:05,VALID,918.318,VALID,0,VALID,97.2977,VALID,0,VALID,19.1583,VALID,118,VALID,0.765625,
2013-01-27, 03:28:05,VALID,918.31,VALID,0,VALID,97.3358,VALID,0,VALID,19.1597,VALID,123,VALID,0.662891,
2013-01-27, 03:29:05,VALID,918.276,VALID,0,VALID,97.3281,VALID,0,VALID,19.1583,VALID,136,VALID,0.857031,
2013-01-27, 03:30:05,VALID,918.265,VALID,0,VALID,97.3205,VALID,0,VALID,19.1987,VALID,124,VALID,1.18984,
2013-01-27, 03:31:05,VALID,918.24,VALID,0,VALID,97.3434,VALID,0,VALID,19.1792,VALID,129,VALID,1.07031,
2013-01-27, 03:32:05,VALID,918.255,VALID,0,VALID,97.3281,VALID,0,VALID,19.1987,VALID,146,VALID,0.685547,
2013-01-27, 03:33:05,VALID,918.249,VALID,0,VALID,97.3434,VALID,0,VALID,19.1987,VALID,143,VALID,0.472656,
2013-01-27, 03:34:05,VALID,918.242,VALID,0,VALID,97.3663,VALID,0,VALID,19.1987,VALID,126,VALID,0.84375,
2013-01-27, 03:35:05,VALID,918.241,VALID,0,VALID,97.3586,VALID,0,VALID,19.2182,VALID,138,VALID,1.02695,
2013-01-27, 03:36:05,VALID,918.187,VALID,0,VALID,97.3586,VALID,0,VALID,19.2168,VALID,154,VALID,0.830078,
2013-01-27, 03:37:05,VALID,918.208,VALID,0,VALID,97.3358,VALID,0,VALID,19.2182,VALID,176,VALID,0.667188,
2013-01-27, 03:38:05,VALID,918.186,VALID,0,VALID,97.3663,VALID,0,VALID,19.1987,VALID,158,VALID,0.602344,
2013-01-27, 03:39:05,VALID,918.193,VALID,0,VALID,97.3663,VALID,0,VALID,19.1973,VALID,137,VALID,0.638281,
2013-01-27, 03:40:05,VALID,918.185,VALID,0,VALID,97.3358,VALID,0,VALID,19.1973,VALID,138,VALID,1.02305,
2013-01-27, 03:41:05,VALID,918.151,VALID,0,VALID,97.3663,VALID,0,VALID,19.1568,VALID,136,VALID,1.04453,
2013-01-27, 03:42:05,VALID,918.161,VALID,0,VALID,97.3663,VALID,0.107441,VALID,19.1583,VALID,144,VALID,0.968359,
2013-01-27, 03:43:05,VALID,918.17,VALID,0,VALID,97.3663,VALID,0,VALID,19.1388,VALID,137,VALID,0.549219,
2013-01-27, 03:44:05,VALID,918.147,VALID,0,VALID,97.3815,VALID,0,VALID,19.1373,VALID,141,VALID,0.572656,